Weather History for West Bend, WI

Change the Weather History Date:

Monday, October 7, 2013

  Actual Average Record
Temperature  
Mean Temperature 52 °F -  
Max Temperature 62 °F 61 °F 84 °F (2007)
Min Temperature 41 °F 41 °F 12 °F (1998)
Degree Days  
Heating Degree Days 13    
Growing Degree Days 2 (Base 50)    
Moisture  
Dew Point 41 °F    
Average Humidity 72    
Maximum Humidity 93    
Minimum Humidity 37    
Precipitation  
Precipitation 0.00 in - - ()
Sea Level Pressure  
Sea Level Pressure 29.88 in    
Wind  
Wind Speed 8 mph (West)    
Max Wind Speed 15 mph    
Max Gust Speed 21 mph    
Visibility 10 miles    
Events Rain    
Averages and records for this station are not official NWS values.
T = Trace of Precipitation, MM = Missing Value Source: NWS Daily Summary

Daily Weather History Graph

Daily Weather History Graph

Search for Another Location

Airport:

Trip Planner

Search our weather history database for the weather conditions in past years. The results will help you decide how hot, cold, wet, or windy it might be!

Date:

Astronomy

Oct. 07, 2013 Rise Set
Actual Time 6:57 AM CDT 6:22 PM CDT
Civil Twilight 6:28 AM CDT 6:51 PM CDT
Nautical Twilight 5:55 AM CDT 7:24 PM CDT
Astronomical Twilight 5:22 AM CDT 7:57 PM CDT
Moon 9:52 AM CDT (10/7) 8:01 PM CDT (10/7)
Length of Visible Light 12h 22m
Length of Day
11h 25m
Waxing Crescent, 9% of the Moon is Illuminated
Oct 7
Waxing Crescent
Oct 11
First Quarter
Oct 18
Full
Oct 26
Last Quarter
Nov 3
New

Hourly Weather History & Observations

Time (CDT) Temp. Windchill Dew Point Humidity Pressure Visibility Wind Dir Wind Speed Gust Speed Precip Events Conditions
12:15 AM 46.4 °F 43.5 °F 41.0 °F 81% 29.70 in 10.0 mi West 5.8 mph - N/A   Overcast
12:35 AM 46.4 °F - 41.0 °F 81% 29.69 in 10.0 mi Calm Calm - N/A   Overcast
12:55 AM 46.4 °F 40.7 °F 41.0 °F 81% 29.70 in 10.0 mi West 12.7 mph - N/A   Overcast
1:15 AM 46.4 °F 42.4 °F 41.0 °F 81% 29.70 in 10.0 mi West 8.1 mph - N/A   Overcast
1:35 AM 46.4 °F 41.9 °F 41.0 °F 81% 29.70 in 10.0 mi West 9.2 mph - N/A   Overcast
1:55 AM 46.4 °F 41.5 °F 41.0 °F 81% 29.71 in 10.0 mi West 10.4 mph - N/A   Overcast
2:15 AM 46.4 °F 41.1 °F 41.0 °F 81% 29.70 in 10.0 mi West 11.5 mph 17.3 mph N/A   Overcast
2:35 AM 46.4 °F 40.7 °F 41.0 °F 81% 29.70 in 10.0 mi West 12.7 mph 16.1 mph N/A   Overcast
2:55 AM 46.4 °F 41.1 °F 41.0 °F 81% 29.70 in 10.0 mi West 11.5 mph - N/A   Overcast
3:15 AM 46.4 °F 41.5 °F 41.0 °F 81% 29.69 in 10.0 mi West 10.4 mph - N/A   Overcast
3:55 AM 46.4 °F 41.5 °F 41.0 °F 81% 29.70 in 10.0 mi WSW 10.4 mph 18.4 mph N/A   Mostly Cloudy
4:15 AM 46.4 °F 40.7 °F 41.0 °F 81% 29.71 in 10.0 mi West 12.7 mph 18.4 mph N/A   Overcast
4:35 AM 46.4 °F 41.5 °F 41.0 °F 81% 29.71 in 10.0 mi West 10.4 mph - N/A   Overcast
4:55 AM 46.4 °F 40.7 °F 42.8 °F 87% 29.72 in 10.0 mi West 12.7 mph - N/A Rain Rain
5:35 AM 44.6 °F 40.2 °F 42.8 °F 93% 29.73 in 10.0 mi West 8.1 mph - N/A Rain Rain
5:55 AM 46.4 °F 41.1 °F 42.8 °F 87% 29.74 in 10.0 mi West 11.5 mph - N/A   Overcast
6:15 AM 46.4 °F 42.4 °F 44.6 °F 93% 29.75 in 10.0 mi West 8.1 mph - N/A   Overcast
6:35 AM 46.4 °F 41.9 °F 44.6 °F 93% 29.76 in 5.0 mi West 9.2 mph - N/A   Heavy Drizzle
6:55 AM 46.4 °F 41.1 °F 44.6 °F 93% 29.77 in 4.0 mi West 11.5 mph - N/A   Drizzle
7:15 AM 46.4 °F 40.7 °F 44.6 °F 93% 29.78 in 5.0 mi WNW 12.7 mph 18.4 mph N/A   Overcast
7:35 AM 46.4 °F 41.1 °F 42.8 °F 87% 29.79 in 10.0 mi WNW 11.5 mph - N/A   Overcast
7:55 AM 46.4 °F 41.5 °F 42.8 °F 87% 29.80 in 10.0 mi WNW 10.4 mph - N/A   Overcast
8:35 AM 48.2 °F - 42.8 °F 82% 29.82 in 10.0 mi WNW 13.8 mph 18.4 mph N/A   Scattered Clouds
8:55 AM 48.2 °F - 42.8 °F 82% 29.83 in 10.0 mi WNW 12.7 mph 17.3 mph N/A   Scattered Clouds
9:15 AM 50.0 °F - 42.8 °F 76% 29.84 in 10.0 mi WNW 10.4 mph 18.4 mph N/A   Scattered Clouds
9:35 AM 50.0 °F - 42.8 °F 76% 29.85 in 10.0 mi WNW 10.4 mph - N/A   Scattered Clouds
9:55 AM 51.8 °F - 42.8 °F 71% 29.85 in 10.0 mi WNW 11.5 mph 20.7 mph N/A   Scattered Clouds
10:15 AM 51.8 °F - 41.0 °F 67% 29.86 in 10.0 mi WNW 11.5 mph - N/A   Mostly Cloudy
10:35 AM 53.6 °F - 42.8 °F 67% 29.87 in 10.0 mi NW 9.2 mph 17.3 mph N/A   Scattered Clouds
10:55 AM 53.6 °F - 42.8 °F 67% 29.88 in 10.0 mi West 10.4 mph 18.4 mph N/A   Scattered Clouds
11:15 AM 53.6 °F - 42.8 °F 67% 29.89 in 10.0 mi WNW 15.0 mph - N/A   Scattered Clouds
11:35 AM 53.6 °F - 42.8 °F 67% 29.90 in 10.0 mi WNW 11.5 mph - N/A   Scattered Clouds
11:55 AM 55.4 °F - 42.8 °F 63% 29.90 in 10.0 mi West 11.5 mph - N/A   Clear
12:15 PM 55.4 °F - 42.8 °F 63% 29.91 in 10.0 mi WNW 10.4 mph - N/A   Clear
12:35 PM 55.4 °F - 42.8 °F 63% 29.91 in 10.0 mi West 9.2 mph - N/A   Clear
12:55 PM 57.2 °F - 42.8 °F 59% 29.91 in 10.0 mi West 11.5 mph 17.3 mph N/A   Scattered Clouds
1:15 PM 57.2 °F - 41.0 °F 55% 29.91 in 10.0 mi West 9.2 mph - N/A   Scattered Clouds
1:35 PM 59.0 °F - 41.0 °F 51% 29.91 in 10.0 mi WNW 11.5 mph 19.6 mph N/A   Scattered Clouds
1:55 PM 59.0 °F - 41.0 °F 51% 29.91 in 10.0 mi West 8.1 mph 20.7 mph N/A   Scattered Clouds
2:15 PM 60.8 °F - 41.0 °F 48% 29.92 in 10.0 mi West 10.4 mph 19.6 mph N/A   Scattered Clouds
2:35 PM 62.6 °F - 41.0 °F 45% 29.92 in 10.0 mi WSW 11.5 mph - N/A   Mostly Cloudy
2:55 PM 60.8 °F - 41.0 °F 48% 29.92 in 10.0 mi West 10.4 mph - N/A   Scattered Clouds
3:15 PM 62.6 °F - 41.0 °F 45% 29.92 in 10.0 mi West 9.2 mph - N/A   Scattered Clouds
3:35 PM 62.6 °F - 35.6 °F 37% 29.93 in 10.0 mi West 12.7 mph - N/A   Scattered Clouds
3:55 PM 62.6 °F - 35.6 °F 37% 29.93 in 10.0 mi West 11.5 mph 17.3 mph N/A   Scattered Clouds
4:15 PM 62.6 °F - 35.6 °F 37% 29.94 in 10.0 mi West 15.0 mph 18.4 mph N/A   Scattered Clouds
4:35 PM 62.6 °F - 35.6 °F 37% 29.95 in 10.0 mi WNW 9.2 mph 17.3 mph N/A   Clear
4:55 PM 62.6 °F - 35.6 °F 37% 29.95 in 10.0 mi West 9.2 mph - N/A   Clear
5:15 PM 62.6 °F - 35.6 °F 37% 29.96 in 10.0 mi West 9.2 mph - N/A   Clear
5:35 PM 60.8 °F - 35.6 °F 39% 29.96 in 10.0 mi West 6.9 mph - N/A   Clear
5:55 PM 60.8 °F - 35.6 °F 39% 29.97 in 10.0 mi West 5.8 mph - N/A   Clear
6:15 PM 59.0 °F - 37.4 °F 45% 29.98 in 10.0 mi Calm Calm - N/A   Clear
6:35 PM 55.4 °F - 39.2 °F 54% 29.99 in 10.0 mi Calm Calm - N/A   Clear
6:55 PM 50.0 °F - 42.8 °F 76% 30.00 in 10.0 mi Calm Calm - N/A   Clear
7:15 PM 50.0 °F - 42.8 °F 76% 30.00 in 10.0 mi Calm Calm - N/A   Clear
8:15 PM 46.4 °F - 42.8 °F 87% 30.02 in 10.0 mi Calm Calm - N/A   Clear
8:35 PM 46.4 °F - 42.8 °F 87% 30.03 in 10.0 mi Calm Calm - N/A   Clear
8:55 PM 46.4 °F - 41.0 °F 81% 30.04 in 10.0 mi Calm Calm - N/A   Clear
9:15 PM 44.6 °F - 41.0 °F 87% 30.05 in 10.0 mi Calm Calm - N/A   Clear
9:35 PM 44.6 °F - 41.0 °F 87% 30.05 in 10.0 mi Calm Calm - N/A   Clear
9:55 PM 42.8 °F - 41.0 °F 93% 30.06 in 10.0 mi Calm Calm - N/A   Clear
10:15 PM 42.8 °F - 41.0 °F 93% 30.07 in 10.0 mi Calm Calm - N/A   Clear
10:35 PM 42.8 °F - 41.0 °F 93% 30.07 in 10.0 mi Calm Calm - N/A   Clear
10:55 PM 42.8 °F - 41.0 °F 93% 30.07 in 10.0 mi Calm Calm - N/A   Clear
11:15 PM 42.8 °F - 41.0 °F 93% 30.08 in 10.0 mi Calm Calm - N/A   Clear
11:35 PM 42.8 °F - 41.0 °F 93% 30.08 in 10.0 mi Calm Calm - N/A   Clear
11:55 PM 41.0 °F - 39.2 °F 93% 30.09 in 3.0 mi Calm Calm - N/A   Clear